EW2263 Weather Reports


Display with metric or nautical units.
time (UTC)temp
F
wind
direction
speed
MPH
gust
MPH
rain 1hr
in
rain 24hr
in
rain mn
in
humidity
%
barometer
mb
20260504000025 63 217 0.0 0.0 0.00 0.00 0.00 53 1012.0
20260503234509 64 171 0.0 0.0 0.00 0.00 0.00 49 1012.1
20260503233008 66 239 1.0 0.0 0.00 0.00 0.00 49 1012.1
20260503231507 66 171 1.0 0.0 0.00 0.00 0.00 47 1012.1
20260503230023 67 65 1.0 0.0 0.00 0.00 0.00 46 1012.1
20260503224523 69 219 2.0 0.0 0.00 0.00 0.00 44 1012.1
20260503223021 70 205 1.0 0.0 0.00 0.00 0.00 44 1012.2
20260503221520 72 90 2.0 0.0 0.00 0.00 0.00 41 1012.2
20260503220021 72 92 1.0 0.0 0.00 0.00 0.00 38 1012.4
20260503214526 72 84 3.0 0.0 0.00 0.00 0.00 40 1012.4
20260503213017 72 264 2.0 0.0 0.00 0.00 0.00 38 1012.5
20260503211517 71 253 2.0 0.0 0.00 0.00 0.00 43 1012.6
20260503210036 71 107 2.0 0.0 0.00 0.00 0.00 44 1012.7
20260503204514 72 150 3.0 0.0 0.00 0.00 0.00 38 1012.9
20260503203015 72 218 2.0 0.0 0.00 0.00 0.00 42 1013.1
20260503201511 71 167 3.0 0.0 0.00 0.00 0.00 42 1013.4
20260503200012 70 141 2.0 0.0 0.00 0.00 0.00 41 1013.7
20260503194509 70 11 2.0 0.0 0.00 0.00 0.00 41 1013.9
20260503193010 70 145 2.0 0.0 0.00 0.00 0.00 42 1014.2
20260503191506 70 5 3.0 0.0 0.00 0.00 0.00 47 1014.4
20260503190005 69 72 3.0 0.0 0.00 0.00 0.00 44 1014.6
20260503184505 69 107 3.0 0.0 0.00 0.00 0.00 37 1014.8
20260503183004 70 216 3.0 0.0 0.00 0.00 0.00 43 1015.0
20260503181501 68 98 2.0 0.0 0.00 0.00 0.00 45 1014.9
20260503180107 67 163 2.0 0.0 0.00 0.00 0.00 46 1015.1
20260503174558 68 331 3.0 0.0 0.00 0.00 0.00 45 1015.3
20260503173150 66 154 2.0 0.0 0.00 0.00 0.00 50 1015.4
20260503171555 67 112 3.0 0.0 0.00 0.00 0.00 45 1015.8
20260503120113 41 260 0.0 0.0 0.00 0.00 0.00 96 1016.6
20260503110152 37 261 0.0 0.0 0.00 0.00 0.00 92 1015.8
20260503081502 39 261 0.0 0.0 0.00 0.00 0.00 91 1013.9
20260503071557 40 260 0.0 0.0 0.00 0.00 0.00 90 1013.4
20260503054548 41 261 0.0 0.0 0.00 0.00 0.00 89 1013.0
20260503053047 41 260 0.0 0.0 0.00 0.00 0.00 88 1013.0
20260503051545 41 260 0.0 0.0 0.00 0.00 0.00 88 1012.9
20260503050041 42 260 0.0 0.0 0.00 0.00 0.00 88 1012.7
20260503044543 42 261 0.0 0.0 0.00 0.00 0.00 88 1012.7
20260503043039 42 261 0.0 0.0 0.00 0.00 0.00 87 1012.8
20260503041540 43 260 0.0 0.0 0.00 0.00 0.00 86 1012.8
20260503040034 43 319 0.0 0.0 0.00 0.00 0.00 86 1012.6
20260503034532 44 319 0.0 0.0 0.00 0.00 0.00 85 1012.4
20260503033030 44 319 0.0 0.0 0.00 0.00 0.00 84 1012.3
20260503031528 45 319 0.0 0.0 0.00 0.00 0.00 83 1012.1
20260503030028 45 319 0.0 0.0 0.00 0.00 0.00 82 1012.0
20260503024522 46 319 0.0 0.0 0.00 0.00 0.00 81 1011.8
20260503023021 47 319 0.0 0.0 0.00 0.00 0.00 79 1011.7
20260503021515 48 319 0.0 0.0 0.00 0.00 0.00 77 1011.3
20260503020012 49 319 0.0 0.0 0.00 0.00 0.00 75 1011.2
20260503014508 50 319 0.0 0.0 0.00 0.00 0.00 71 1010.9
20260503013005 52 319 0.0 0.0 0.00 0.00 0.00 69 1010.6
20260503011609 54 319 0.0 0.0 0.00 0.00 0.00 64 1010.2
20260503010103 55 319 0.0 0.0 0.00 0.00 0.00 60 1010.0
20260503004558 57 321 0.0 0.0 0.00 0.00 0.00 54 1009.5
20260503003103 59 322 0.0 0.0 0.00 0.00 0.00 48 1009.3
20260503001557 60 19 1.0 0.0 0.00 0.00 0.00 46 1009.1